Time,TemperatureF,DewpointF,PressureIn,WindDirection,WindDirectionDegrees,WindSpeedMPH,WindSpeedGustMPH,Humidity,HourlyPrecipIn,Conditions,Clouds,dailyrainin,SoftwareType,DateUTC
2013-01-09 00:00:00,33.3,29.3,30.29,West,271,0.0,0.0,85,0.00,,,0.00,Wunderground v.1.15,2013-01-09 05:00:00,
2013-01-09 00:03:00,33.1,29.4,30.29,West,271,0.0,0.0,86,0.00,,,0.00,Wunderground v.1.15,2013-01-09 05:03:00,
2013-01-09 00:05:00,33.1,29.4,30.28,West,271,0.0,0.0,86,0.00,,,0.00,Wunderground v.1.15,2013-01-09 05:05:00,
2013-01-09 00:11:00,32.9,29.5,30.28,West,271,0.0,0.0,87,0.00,,,0.00,Wunderground v.1.15,2013-01-09 05:11:00,
2013-01-09 00:17:00,33.0,29.6,30.28,West,271,0.0,0.0,87,0.00,,,0.00,Wunderground v.1.15,2013-01-09 05:17:00,
2013-01-09 00:23:00,33.1,29.9,30.28,West,271,0.0,0.0,88,0.00,,,0.00,Wunderground v.1.15,2013-01-09 05:23:00,
2013-01-09 00:29:00,33.3,29.8,30.28,West,271,0.0,0.0,87,0.00,,,0.00,Wunderground v.1.15,2013-01-09 05:29:00,
2013-01-09 00:35:00,33.3,29.8,30.28,West,271,0.0,0.0,87,0.00,,,0.00,Wunderground v.1.15,2013-01-09 05:35:00,
2013-01-09 00:41:00,33.1,29.4,30.28,West,271,0.0,0.0,86,0.00,,,0.00,Wunderground v.1.15,2013-01-09 05:41:00,
2013-01-09 00:46:00,32.9,29.5,30.29,West,271,0.0,0.0,87,0.00,,,0.00,Wunderground v.1.15,2013-01-09 05:46:00,
2013-01-09 00:52:00,32.3,28.9,30.29,West,271,0.0,0.0,87,0.00,,,0.00,Wunderground v.1.15,2013-01-09 05:52:00,
2013-01-09 00:58:00,32.0,28.8,30.28,West,271,0.0,0.0,88,0.00,,,0.00,Wunderground v.1.15,2013-01-09 05:58:00,
2013-01-09 01:04:00,31.6,28.5,30.28,West,271,0.0,0.0,88,0.00,,,0.00,Wunderground v.1.15,2013-01-09 06:04:00,
2013-01-09 01:10:00,31.3,28.2,30.28,West,271,0.0,0.0,88,0.00,,,0.00,Wunderground v.1.15,2013-01-09 06:10:00,
2013-01-09 01:16:00,31.0,27.9,30.27,West,271,0.0,0.0,88,0.00,,,0.00,Wunderground v.1.15,2013-01-09 06:16:00,
2013-01-09 01:22:00,30.8,27.9,30.28,West,271,0.0,0.0,89,0.00,,,0.00,Wunderground v.1.15,2013-01-09 06:22:00,
2013-01-09 01:28:00,30.8,28.2,30.28,West,271,0.0,0.0,90,0.00,,,0.00,Wunderground v.1.15,2013-01-09 06:28:00,
2013-01-09 01:34:00,30.9,28.3,30.28,West,271,0.0,0.0,90,0.00,,,0.00,Wunderground v.1.15,2013-01-09 06:34:00,
2013-01-09 01:39:00,30.9,28.3,30.28,West,271,0.0,0.0,90,0.00,,,0.00,Wunderground v.1.15,2013-01-09 06:39:00,
2013-01-09 01:45:00,30.8,28.2,30.28,West,271,0.0,0.0,90,0.00,,,0.00,Wunderground v.1.15,2013-01-09 06:45:00,
2013-01-09 01:51:00,30.8,28.5,30.28,West,271,0.0,0.0,91,0.00,,,0.00,Wunderground v.1.15,2013-01-09 06:51:00,
2013-01-09 01:57:00,31.0,28.7,30.27,West,271,0.0,0.0,91,0.00,,,0.00,Wunderground v.1.15,2013-01-09 06:57:00,
2013-01-09 02:02:00,31.1,28.8,30.27,West,271,0.0,0.0,91,0.00,,,0.00,Wunderground v.1.15,2013-01-09 07:02:00,
2013-01-09 02:07:00,31.4,29.1,30.28,West,271,0.0,0.0,91,0.00,,,0.00,Wunderground v.1.15,2013-01-09 07:07:00,
2013-01-09 02:12:00,31.5,28.9,30.28,West,271,0.0,0.0,90,0.00,,,0.00,Wunderground v.1.15,2013-01-09 07:12:00,
2013-01-09 02:17:00,31.4,28.8,30.28,West,271,0.0,0.0,90,0.00,,,0.00,Wunderground v.1.15,2013-01-09 07:17:00,
2013-01-09 02:22:00,31.2,28.6,30.28,West,271,0.0,0.0,90,0.00,,,0.00,Wunderground v.1.15,2013-01-09 07:22:00,
2013-01-09 02:27:00,31.1,28.5,30.27,West,271,0.0,0.0,90,0.00,,,0.00,Wunderground v.1.15,2013-01-09 07:27:00,
2013-01-09 02:32:00,30.8,28.2,30.27,West,271,0.0,0.0,90,0.00,,,0.00,Wunderground v.1.15,2013-01-09 07:32:00,
2013-01-09 02:37:00,30.7,28.1,30.27,West,271,0.0,0.0,90,0.00,,,0.00,Wunderground v.1.15,2013-01-09 07:37:00,
2013-01-09 02:42:00,30.6,28.0,30.27,West,271,0.0,0.0,90,0.00,,,0.00,Wunderground v.1.15,2013-01-09 07:42:00,
2013-01-09 02:47:00,30.5,28.2,30.27,West,271,0.0,0.0,91,0.00,,,0.00,Wunderground v.1.15,2013-01-09 07:47:00,
2013-01-09 02:52:00,30.2,27.9,30.27,West,271,0.0,0.0,91,0.00,,,0.00,Wunderground v.1.15,2013-01-09 07:52:00,
2013-01-09 02:57:00,30.1,27.8,30.27,West,271,0.0,0.0,91,0.00,,,0.00,Wunderground v.1.15,2013-01-09 07:57:00,
2013-01-09 03:02:00,30.0,27.7,30.27,West,271,0.0,0.0,91,0.00,,,0.00,Wunderground v.1.15,2013-01-09 08:02:00,
2013-01-09 03:07:00,29.8,27.5,30.27,West,271,0.0,0.0,91,0.00,,,0.00,Wunderground v.1.15,2013-01-09 08:07:00,
2013-01-09 03:12:00,29.9,27.9,30.27,West,271,0.0,0.0,92,0.00,,,0.00,Wunderground v.1.15,2013-01-09 08:12:00,
2013-01-09 03:17:00,29.9,27.9,30.26,West,271,0.0,0.0,92,0.00,,,0.00,Wunderground v.1.15,2013-01-09 08:17:00,
2013-01-09 03:22:00,29.9,27.9,30.27,West,271,0.0,0.0,92,0.00,,,0.00,Wunderground v.1.15,2013-01-09 08:22:00,
2013-01-09 03:27:00,30.0,28.0,30.26,West,271,0.0,0.0,92,0.00,,,0.00,Wunderground v.1.15,2013-01-09 08:27:00,
2013-01-09 03:32:00,30.0,28.0,30.26,West,271,0.0,0.0,92,0.00,,,0.00,Wunderground v.1.15,2013-01-09 08:32:00,
2013-01-09 03:37:00,30.2,28.2,30.26,West,271,0.0,0.0,92,0.00,,,0.00,Wunderground v.1.15,2013-01-09 08:37:00,
2013-01-09 03:42:00,30.2,28.2,30.26,West,271,0.0,0.0,92,0.00,,,0.00,Wunderground v.1.15,2013-01-09 08:42:00,
2013-01-09 03:47:00,30.2,28.2,30.26,West,271,0.0,0.0,92,0.00,,,0.00,Wunderground v.1.15,2013-01-09 08:47:00,
2013-01-09 03:53:00,30.2,28.2,30.26,West,271,0.0,0.0,92,0.00,,,0.00,Wunderground v.1.15,2013-01-09 08:53:00,
2013-01-09 03:58:00,30.1,28.1,30.26,West,271,0.0,0.0,92,0.00,,,0.00,Wunderground v.1.15,2013-01-09 08:58:00,
2013-01-09 04:03:00,30.0,28.0,30.25,West,272,0.0,0.0,92,0.00,,,0.00,Wunderground v.1.15,2013-01-09 09:03:00,
2013-01-09 04:08:00,29.9,27.9,30.25,West,271,0.0,0.0,92,0.00,,,0.00,Wunderground v.1.15,2013-01-09 09:08:00,
2013-01-09 04:13:00,29.8,27.8,30.25,West,271,0.0,0.0,92,0.00,,,0.00,Wunderground v.1.15,2013-01-09 09:13:00,
2013-01-09 04:18:00,29.8,27.8,30.25,West,271,0.0,0.0,92,0.00,,,0.00,Wunderground v.1.15,2013-01-09 09:18:00,
2013-01-09 04:23:00,29.7,27.7,30.25,West,271,0.0,0.0,92,0.00,,,0.00,Wunderground v.1.15,2013-01-09 09:23:00,
2013-01-09 04:28:00,29.5,27.5,30.25,West,271,0.0,0.0,92,0.00,,,0.00,Wunderground v.1.15,2013-01-09 09:28:00,
2013-01-09 04:33:00,29.4,27.6,30.25,West,271,0.0,0.0,93,0.00,,,0.00,Wunderground v.1.15,2013-01-09 09:33:00,
2013-01-09 04:38:00,29.4,27.6,30.25,West,271,0.0,0.0,93,0.00,,,0.00,Wunderground v.1.15,2013-01-09 09:38:00,
2013-01-09 04:43:00,29.6,27.8,30.26,West,271,0.0,0.0,93,0.00,,,0.00,Wunderground v.1.15,2013-01-09 09:43:00,
2013-01-09 04:48:00,29.7,27.9,30.25,West,271,0.0,0.0,93,0.00,,,0.00,Wunderground v.1.15,2013-01-09 09:48:00,
2013-01-09 04:53:00,29.6,27.8,30.25,West,271,0.0,0.0,93,0.00,,,0.00,Wunderground v.1.15,2013-01-09 09:53:00,
2013-01-09 04:58:00,29.4,27.6,30.26,West,271,0.0,0.0,93,0.00,,,0.00,Wunderground v.1.15,2013-01-09 09:58:00,
2013-01-09 05:03:00,29.2,27.4,30.25,West,271,0.0,0.0,93,0.00,,,0.00,Wunderground v.1.15,2013-01-09 10:03:00,
2013-01-09 05:08:00,28.9,27.1,30.25,West,271,0.0,0.0,93,0.00,,,0.00,Wunderground v.1.15,2013-01-09 10:08:00,
2013-01-09 05:13:00,28.6,26.8,30.25,West,271,0.0,0.0,93,0.00,,,0.00,Wunderground v.1.15,2013-01-09 10:13:00,
2013-01-09 05:18:00,28.4,26.6,30.25,West,271,0.0,0.0,93,0.00,,,0.00,Wunderground v.1.15,2013-01-09 10:18:00,
2013-01-09 05:23:00,28.2,26.4,30.25,West,271,0.0,0.0,93,0.00,,,0.00,Wunderground v.1.15,2013-01-09 10:23:00,
2013-01-09 05:28:00,28.1,26.3,30.25,West,271,0.0,0.0,93,0.00,,,0.00,Wunderground v.1.15,2013-01-09 10:28:00,
2013-01-09 05:33:00,28.1,26.6,30.25,West,271,0.0,0.0,94,0.00,,,0.00,Wunderground v.1.15,2013-01-09 10:33:00,
2013-01-09 05:38:00,28.0,26.5,30.25,West,271,0.0,0.0,94,0.00,,,0.00,Wunderground v.1.15,2013-01-09 10:38:00,
2013-01-09 05:43:00,27.9,26.4,30.25,West,271,0.0,0.0,94,0.00,,,0.00,Wunderground v.1.15,2013-01-09 10:43:00,
2013-01-09 05:48:00,27.8,26.3,30.25,West,271,0.0,0.0,94,0.00,,,0.00,Wunderground v.1.15,2013-01-09 10:48:00,
2013-01-09 05:53:00,27.7,26.2,30.24,West,271,0.0,0.0,94,0.00,,,0.00,Wunderground v.1.15,2013-01-09 10:53:00,
2013-01-09 05:58:00,27.5,26.0,30.25,West,271,0.0,0.0,94,0.00,,,0.00,Wunderground v.1.15,2013-01-09 10:58:00,
2013-01-09 06:03:00,27.5,26.0,30.25,West,271,0.0,0.0,94,0.00,,,0.00,Wunderground v.1.15,2013-01-09 11:03:00,
2013-01-09 06:08:00,27.7,26.5,30.25,West,271,0.0,0.0,95,0.00,,,0.00,Wunderground v.1.15,2013-01-09 11:08:00,
2013-01-09 06:13:00,27.8,26.6,30.25,West,271,0.0,0.0,95,0.00,,,0.00,Wunderground v.1.15,2013-01-09 11:13:00,
2013-01-09 06:18:00,27.9,26.4,30.25,West,271,0.0,0.0,94,0.00,,,0.00,Wunderground v.1.15,2013-01-09 11:18:00,
2013-01-09 06:23:00,28.0,26.5,30.25,West,271,0.0,0.0,94,0.00,,,0.00,Wunderground v.1.15,2013-01-09 11:23:00,
2013-01-09 06:28:00,28.2,27.0,30.26,West,269,1.0,1.0,95,0.00,,,0.00,Wunderground v.1.15,2013-01-09 11:28:00,
2013-01-09 06:33:00,28.8,27.5,30.26,West,268,0.0,2.0,95,0.00,,,0.00,Wunderground v.1.15,2013-01-09 11:33:00,
2013-01-09 06:38:00,29.2,27.9,30.26,West,268,0.0,2.0,95,0.00,,,0.00,Wunderground v.1.15,2013-01-09 11:38:00,
2013-01-09 06:43:00,29.4,28.1,30.26,West,269,0.0,0.0,95,0.00,,,0.00,Wunderground v.1.15,2013-01-09 11:43:00,
2013-01-09 06:48:00,29.7,28.4,30.26,West,268,0.0,1.0,95,0.00,,,0.00,Wunderground v.1.15,2013-01-09 11:48:00,
2013-01-09 06:53:00,29.8,28.3,30.26,West,269,0.0,1.0,94,0.00,,,0.00,Wunderground v.1.15,2013-01-09 11:53:00,
2013-01-09 06:58:00,29.8,28.3,30.26,West,269,0.0,1.0,94,0.00,,,0.00,Wunderground v.1.15,2013-01-09 11:58:00,
2013-01-09 07:04:00,29.9,28.4,30.27,West,268,0.0,0.0,94,0.00,,,0.00,Wunderground v.1.15,2013-01-09 12:04:00,
2013-01-09 07:09:00,29.8,28.3,30.27,West,268,0.0,0.0,94,0.00,,,0.00,Wunderground v.1.15,2013-01-09 12:09:00,
2013-01-09 07:14:00,29.7,28.2,30.27,West,268,0.0,0.0,94,0.00,,,0.00,Wunderground v.1.15,2013-01-09 12:14:00,
2013-01-09 07:19:00,29.5,28.0,30.27,West,269,0.0,0.0,94,0.00,,,0.00,Wunderground v.1.15,2013-01-09 12:19:00,
2013-01-09 07:24:00,29.3,27.8,30.27,West,268,0.0,0.0,94,0.00,,,0.00,Wunderground v.1.15,2013-01-09 12:24:00,
2013-01-09 07:29:00,29.2,27.7,30.27,West,269,0.0,0.0,94,0.00,,,0.00,Wunderground v.1.15,2013-01-09 12:29:00,
2013-01-09 07:34:00,29.0,27.5,30.27,West,268,0.0,0.0,94,0.00,,,0.00,Wunderground v.1.15,2013-01-09 12:34:00,
2013-01-09 07:39:00,29.0,27.5,30.27,West,268,0.0,0.0,94,0.00,,,0.00,Wunderground v.1.15,2013-01-09 12:39:00,
2013-01-09 07:44:00,29.0,27.5,30.27,West,269,0.0,0.0,94,0.00,,,0.00,Wunderground v.1.15,2013-01-09 12:44:00,
2013-01-09 07:49:00,28.9,27.4,30.27,West,269,0.0,0.0,94,0.00,,,0.00,Wunderground v.1.15,2013-01-09 12:49:00,
2013-01-09 07:54:00,28.9,27.4,30.27,West,268,0.0,0.0,94,0.00,,,0.00,Wunderground v.1.15,2013-01-09 12:54:00,
2013-01-09 07:59:00,29.1,27.8,30.27,West,269,0.0,0.0,95,0.00,,,0.00,Wunderground v.1.15,2013-01-09 12:59:00,
2013-01-09 08:04:00,29.4,28.1,30.27,West,269,0.0,1.0,95,0.00,,,0.00,Wunderground v.1.15,2013-01-09 13:04:00,
2013-01-09 08:10:00,29.6,28.3,30.27,West,269,0.0,0.0,95,0.00,,,0.00,Wunderground v.1.15,2013-01-09 13:10:00,
2013-01-09 08:15:00,29.8,28.5,30.26,West,269,0.0,0.0,95,0.00,,,0.00,Wunderground v.1.15,2013-01-09 13:15:00,
2013-01-09 08:20:00,30.0,28.5,30.26,West,269,0.0,0.0,94,0.00,,,0.00,Wunderground v.1.15,2013-01-09 13:20:00,
2013-01-09 08:25:00,30.2,28.7,30.26,West,269,0.0,0.0,94,0.00,,,0.00,Wunderground v.1.15,2013-01-09 13:25:00,
2013-01-09 08:30:00,30.5,29.2,30.26,West,268,0.0,0.0,95,0.00,,,0.00,Wunderground v.1.15,2013-01-09 13:30:00,
2013-01-09 08:35:00,30.8,29.3,30.27,West,269,0.0,0.0,94,0.00,,,0.00,Wunderground v.1.15,2013-01-09 13:35:00,
2013-01-09 08:40:00,31.3,30.0,30.26,West,268,0.0,0.0,95,0.00,,,0.00,Wunderground v.1.15,2013-01-09 13:40:00,
2013-01-09 08:45:00,31.7,30.2,30.27,West,268,0.0,0.0,94,0.00,,,0.00,Wunderground v.1.15,2013-01-09 13:45:00,
2013-01-09 08:50:00,32.2,30.7,30.27,West,271,0.0,0.0,94,0.00,,,0.00,Wunderground v.1.15,2013-01-09 13:50:00,
2013-01-09 08:55:00,32.6,30.8,30.27,North,11,1.0,2.0,93,0.00,,,0.00,Wunderground v.1.15,2013-01-09 13:55:00,
2013-01-09 09:00:00,33.1,31.0,30.27,NNW,338,0.0,1.0,92,0.00,,,0.00,Wunderground v.1.15,2013-01-09 14:00:00,
2013-01-09 09:05:00,33.7,31.4,30.27,NW,323,0.0,1.0,91,0.00,,,0.00,Wunderground v.1.15,2013-01-09 14:05:00,
2013-01-09 09:10:00,34.3,31.7,30.27,NW,323,0.0,0.0,90,0.00,,,0.00,Wunderground v.1.15,2013-01-09 14:10:00,
2013-01-09 09:15:00,34.9,32.0,30.27,NNE,20,0.0,2.0,89,0.00,,,0.00,Wunderground v.1.15,2013-01-09 14:15:00,
2013-01-09 09:20:00,35.4,32.2,30.27,NE,39,0.0,0.0,88,0.00,,,0.00,Wunderground v.1.15,2013-01-09 14:20:00,
2013-01-09 09:25:00,35.7,32.2,30.27,NNE,25,0.0,0.0,87,0.00,,,0.00,Wunderground v.1.15,2013-01-09 14:25:00,
2013-01-09 09:30:00,36.1,32.3,30.27,NNE,24,0.0,0.0,86,0.00,,,0.00,Wunderground v.1.15,2013-01-09 14:30:00,
2013-01-09 09:35:00,36.6,32.8,30.26,NNE,25,0.0,0.0,86,0.00,,,0.00,Wunderground v.1.15,2013-01-09 14:35:00,
2013-01-09 09:40:00,37.3,33.2,30.26,NNE,25,0.0,0.0,85,0.00,,,0.00,Wunderground v.1.15,2013-01-09 14:40:00,
2013-01-09 09:45:00,37.7,33.0,30.26,NNE,25,0.0,0.0,83,0.00,,,0.00,Wunderground v.1.15,2013-01-09 14:45:00,
2013-01-09 09:50:00,38.3,33.3,30.25,North,352,0.0,0.0,82,0.00,,,0.00,Wunderground v.1.15,2013-01-09 14:50:00,
2013-01-09 09:55:00,38.8,33.8,30.25,North,352,0.0,0.0,82,0.00,,,0.00,Wunderground v.1.15,2013-01-09 14:55:00,
2013-01-09 10:00:00,39.3,34.0,30.24,North,352,0.0,0.0,81,0.00,,,0.00,Wunderground v.1.15,2013-01-09 15:00:00,
2013-01-09 10:05:00,39.9,34.2,30.24,North,8,0.0,0.0,80,0.00,,,0.00,Wunderground v.1.15,2013-01-09 15:05:00,
2013-01-09 10:10:00,40.3,34.3,30.24,North,8,0.0,0.0,79,0.00,,,0.00,Wunderground v.1.15,2013-01-09 15:10:00,
2013-01-09 10:15:00,41.2,35.2,30.24,North,8,0.0,0.0,79,0.00,,,0.00,Wunderground v.1.15,2013-01-09 15:15:00,
2013-01-09 10:20:00,42.0,35.3,30.23,South,181,1.0,1.0,77,0.00,,,0.00,Wunderground v.1.15,2013-01-09 15:20:00,
2013-01-09 10:25:00,42.5,35.5,30.22,SSE,153,0.0,3.0,76,0.00,,,0.00,Wunderground v.1.15,2013-01-09 15:25:00,
2013-01-09 10:30:00,42.7,35.0,30.22,SSE,152,1.0,3.0,74,0.00,,,0.00,Wunderground v.1.15,2013-01-09 15:30:00,
2013-01-09 10:35:00,42.9,35.2,30.21,SSW,210,1.0,3.0,74,0.00,,,0.00,Wunderground v.1.15,2013-01-09 15:35:00,
2013-01-09 10:40:00,43.1,35.4,30.21,SW,231,0.0,2.0,74,0.00,,,0.00,Wunderground v.1.15,2013-01-09 15:40:00,
2013-01-09 10:45:00,43.4,35.3,30.21,SSW,198,2.0,3.0,73,0.00,,,0.00,Wunderground v.1.15,2013-01-09 15:45:00,
2013-01-09 10:50:00,43.7,35.6,30.19,SW,224,3.0,3.0,73,0.00,,,0.00,Wunderground v.1.15,2013-01-09 15:50:00,
2013-01-09 10:55:00,44.0,35.9,30.20,WNW,283,0.0,4.0,73,0.00,,,0.00,Wunderground v.1.15,2013-01-09 15:55:00,
2013-01-09 11:00:00,44.3,36.2,30.20,WSW,240,1.0,1.0,73,0.00,,,0.00,Wunderground v.1.15,2013-01-09 16:00:00,
2013-01-09 11:05:00,44.5,36.0,30.21,WNW,283,1.0,3.0,72,0.00,,,0.00,Wunderground v.1.15,2013-01-09 16:05:00,
2013-01-09 11:10:00,44.5,35.7,30.21,West,277,3.0,4.0,71,0.00,,,0.00,Wunderground v.1.15,2013-01-09 16:10:00,
2013-01-09 11:15:00,44.5,36.0,30.21,West,280,2.0,5.0,72,0.00,,,0.00,Wunderground v.1.15,2013-01-09 16:15:00,
2013-01-09 11:20:00,44.3,35.8,30.20,NW,304,1.0,3.0,72,0.00,,,0.00,Wunderground v.1.15,2013-01-09 16:20:00,
2013-01-09 11:25:00,44.1,35.6,30.20,WNW,291,2.0,3.0,72,0.00,,,0.00,Wunderground v.1.15,2013-01-09 16:25:00,
2013-01-09 11:30:00,44.2,35.7,30.20,NNW,340,1.0,2.0,72,0.00,,,0.00,Wunderground v.1.15,2013-01-09 16:30:00,
2013-01-09 11:35:00,44.3,35.8,30.19,NNW,328,1.0,3.0,72,0.00,,,0.00,Wunderground v.1.15,2013-01-09 16:35:00,
2013-01-09 11:40:00,44.3,35.8,30.19,WNW,288,1.0,3.0,72,0.00,,,0.00,Wunderground v.1.15,2013-01-09 16:40:00,
2013-01-09 11:45:00,44.4,35.9,30.19,West,278,1.0,3.0,72,0.00,,,0.00,Wunderground v.1.15,2013-01-09 16:45:00,
2013-01-09 11:50:00,44.3,35.8,30.18,WNW,283,0.0,2.0,72,0.00,,,0.00,Wunderground v.1.15,2013-01-09 16:50:00,
2013-01-09 11:55:00,44.1,35.6,30.17,West,276,0.0,4.0,72,0.00,,,0.00,Wunderground v.1.15,2013-01-09 16:55:00,
2013-01-09 12:00:00,44.1,35.6,30.18,WNW,283,1.0,3.0,72,0.00,,,0.00,Wunderground v.1.15,2013-01-09 17:00:00,
2013-01-09 12:05:00,44.0,35.6,30.17,West,273,0.0,3.0,72,0.00,,,0.00,Wunderground v.1.15,2013-01-09 17:05:00,
2013-01-09 12:10:00,43.9,35.5,30.16,West,274,3.0,4.0,72,0.00,,,0.00,Wunderground v.1.15,2013-01-09 17:10:00,
2013-01-09 12:15:00,43.9,35.8,30.16,WNW,292,0.0,4.0,73,0.00,,,0.00,Wunderground v.1.15,2013-01-09 17:15:00,
2013-01-09 12:20:00,44.0,35.9,30.15,SW,214,0.0,1.0,73,0.00,,,0.00,Wunderground v.1.15,2013-01-09 17:20:00,
2013-01-09 12:25:00,44.1,35.6,30.15,West,277,1.0,3.0,72,0.00,,,0.00,Wunderground v.1.15,2013-01-09 17:25:00,
2013-01-09 12:30:00,44.2,35.7,30.15,WNW,284,1.0,1.0,72,0.00,,,0.00,Wunderground v.1.15,2013-01-09 17:30:00,
2013-01-09 12:35:00,44.2,35.7,30.15,WNW,283,1.0,4.0,72,0.00,,,0.00,Wunderground v.1.15,2013-01-09 17:35:00,
2013-01-09 12:40:00,44.2,36.1,30.15,West,266,1.0,1.0,73,0.00,,,0.00,Wunderground v.1.15,2013-01-09 17:40:00,
2013-01-09 12:45:00,44.3,36.2,30.14,WNW,292,2.0,5.0,73,0.00,,,0.00,Wunderground v.1.15,2013-01-09 17:45:00,
2013-01-09 12:50:00,44.4,36.3,30.14,SW,223,2.0,2.0,73,0.00,,,0.00,Wunderground v.1.15,2013-01-09 17:50:00,
2013-01-09 12:55:00,44.7,36.6,30.14,WNW,293,2.0,3.0,73,0.00,,,0.00,Wunderground v.1.15,2013-01-09 17:55:00,
2013-01-09 13:00:00,44.8,36.3,30.14,West,269,3.0,3.0,72,0.00,,,0.00,Wunderground v.1.15,2013-01-09 18:00:00,
2013-01-09 13:05:00,44.8,36.3,30.13,WNW,298,1.0,4.0,72,0.00,,,0.00,Wunderground v.1.15,2013-01-09 18:05:00,
2013-01-09 13:10:00,44.8,36.7,30.14,WNW,285,1.0,3.0,73,0.00,,,0.00,Wunderground v.1.15,2013-01-09 18:10:00,
2013-01-09 13:15:00,44.7,36.2,30.15,WNW,283,3.0,6.0,72,0.00,,,0.00,Wunderground v.1.15,2013-01-09 18:15:00,
2013-01-09 13:20:00,44.7,36.6,30.15,WNW,293,3.0,4.0,73,0.00,,,0.00,Wunderground v.1.15,2013-01-09 18:20:00,
2013-01-09 13:25:00,44.7,36.6,30.15,West,276,4.0,6.0,73,0.00,,,0.00,Wunderground v.1.15,2013-01-09 18:25:00,
2013-01-09 13:30:00,44.7,36.6,30.15,WNW,291,4.0,6.0,73,0.00,,,0.00,Wunderground v.1.15,2013-01-09 18:30:00,
2013-01-09 13:35:00,44.7,36.6,30.16,NNW,330,4.0,6.0,73,0.00,,,0.00,Wunderground v.1.15,2013-01-09 18:35:00,
2013-01-09 13:40:00,44.6,36.5,30.15,West,263,2.0,3.0,73,0.00,,,0.00,Wunderground v.1.15,2013-01-09 18:40:00,
2013-01-09 13:41:00,44.6,36.5,30.15,WNW,284,2.0,3.0,73,0.00,,,0.00,Wunderground v.1.15,2013-01-09 18:41:00,
2013-01-09 13:44:00,44.6,36.5,30.15,WSW,242,3.0,6.0,73,0.00,,,0.00,Wunderground v.1.15,2013-01-09 18:44:00,
2013-01-09 13:45:00,44.5,36.4,30.15,WNW,289,3.0,6.0,73,0.00,,,0.00,Wunderground v.1.15,2013-01-09 18:45:00,
2013-01-09 13:48:00,44.5,36.4,30.15,WNW,295,2.0,6.0,73,0.00,,,0.00,Wunderground v.1.15,2013-01-09 18:48:00,
2013-01-09 13:49:00,44.5,36.4,30.15,NW,308,4.0,6.0,73,0.00,,,0.00,Wunderground v.1.15,2013-01-09 18:49:00,
2013-01-09 13:54:00,44.6,36.5,30.15,WNW,302,1.0,5.0,73,0.00,,,0.00,Wunderground v.1.15,2013-01-09 18:54:00,
2013-01-09 13:59:00,44.6,36.5,30.15,WNW,285,2.0,3.0,73,0.00,,,0.00,Wunderground v.1.15,2013-01-09 18:59:00,
2013-01-09 14:04:00,44.6,36.5,30.15,West,271,2.0,6.0,73,0.00,,,0.00,Wunderground v.1.15,2013-01-09 19:04:00,
2013-01-09 14:09:00,44.6,36.8,30.14,WNW,300,2.0,3.0,74,0.00,,,0.00,Wunderground v.1.15,2013-01-09 19:09:00,
2013-01-09 14:15:00,44.7,36.9,30.12,WSW,245,2.0,6.0,74,0.00,,,0.00,Wunderground v.1.15,2013-01-09 19:15:00,
2013-01-09 14:20:00,45.0,37.2,30.10,SW,235,2.0,4.0,74,0.00,,,0.00,Wunderground v.1.15,2013-01-09 19:20:00,
2013-01-09 14:25:00,45.3,37.5,30.09,SW,222,4.0,5.0,74,0.00,,,0.00,Wunderground v.1.15,2013-01-09 19:25:00,
2013-01-09 14:30:00,45.4,37.6,30.08,SW,215,5.0,8.0,74,0.00,,,0.00,Wunderground v.1.15,2013-01-09 19:30:00,
2013-01-09 14:35:00,45.4,37.6,30.06,SSW,200,2.0,9.0,74,0.00,,,0.00,Wunderground v.1.15,2013-01-09 19:35:00,
2013-01-09 14:40:00,45.4,37.6,30.06,WNW,291,2.0,4.0,74,0.00,,,0.00,Wunderground v.1.15,2013-01-09 19:40:00,
2013-01-09 14:45:00,45.6,37.8,30.05,SW,219,5.0,5.0,74,0.00,,,0.00,Wunderground v.1.15,2013-01-09 19:45:00,
2013-01-09 14:50:00,46.0,38.2,30.05,WSW,253,5.0,5.0,74,0.00,,,0.00,Wunderground v.1.15,2013-01-09 19:50:00,
2013-01-09 14:55:00,46.4,38.2,30.04,SW,224,1.0,8.0,73,0.00,,,0.00,Wunderground v.1.15,2013-01-09 19:55:00,
2013-01-09 15:00:00,46.7,38.5,30.04,NW,308,2.0,5.0,73,0.00,,,0.00,Wunderground v.1.15,2013-01-09 20:00:00,
2013-01-09 15:05:00,46.9,38.7,30.04,WSW,248,2.0,5.0,73,0.00,,,0.00,Wunderground v.1.15,2013-01-09 20:05:00,
2013-01-09 15:10:00,47.1,38.9,30.05,South,184,3.0,4.0,73,0.00,,,0.00,Wunderground v.1.15,2013-01-09 20:10:00,
2013-01-09 15:15:00,47.3,38.7,30.05,West,264,4.0,7.0,72,0.00,,,0.00,Wunderground v.1.15,2013-01-09 20:15:00,
2013-01-09 15:20:00,47.4,38.8,30.04,SW,222,3.0,4.0,72,0.00,,,0.00,Wunderground v.1.15,2013-01-09 20:20:00,
2013-01-09 15:25:00,47.5,38.9,30.05,WSW,256,3.0,7.0,72,0.00,,,0.00,Wunderground v.1.15,2013-01-09 20:25:00,
2013-01-09 15:30:00,47.7,39.1,30.05,WNW,290,5.0,5.0,72,0.00,,,0.00,Wunderground v.1.15,2013-01-09 20:30:00,
2013-01-09 15:35:00,47.9,39.3,30.05,WNW,283,1.0,6.0,72,0.00,,,0.00,Wunderground v.1.15,2013-01-09 20:35:00,
2013-01-09 15:40:00,48.0,39.4,30.05,West,274,1.0,3.0,72,0.00,,,0.00,Wunderground v.1.15,2013-01-09 20:40:00,
2013-01-09 15:45:00,48.1,39.5,30.05,South,186,3.0,9.0,72,0.00,,,0.00,Wunderground v.1.15,2013-01-09 20:45:00,
2013-01-09 15:50:00,48.3,39.7,30.05,WNW,288,5.0,7.0,72,0.00,,,0.00,Wunderground v.1.15,2013-01-09 20:50:00,
2013-01-09 15:55:00,48.4,39.4,30.04,WSW,245,3.0,8.0,71,0.00,,,0.00,Wunderground v.1.15,2013-01-09 20:55:00,
2013-01-09 16:00:00,48.5,39.5,30.04,WSW,256,2.0,8.0,71,0.00,,,0.00,Wunderground v.1.15,2013-01-09 21:00:00,
2013-01-09 16:05:00,48.5,39.5,30.04,South,191,6.0,8.0,71,0.00,,,0.00,Wunderground v.1.15,2013-01-09 21:05:00,
2013-01-09 16:10:00,48.5,39.5,30.04,WNW,287,10.0,10.0,71,0.00,,,0.00,Wunderground v.1.15,2013-01-09 21:10:00,
2013-01-09 16:15:00,48.6,39.6,30.03,SW,236,2.0,10.0,71,0.00,,,0.00,Wunderground v.1.15,2013-01-09 21:15:00,
2013-01-09 16:20:00,48.5,39.9,30.03,SW,229,2.0,8.0,72,0.00,,,0.00,Wunderground v.1.15,2013-01-09 21:20:00,
2013-01-09 16:25:00,48.6,39.6,30.03,WNW,285,3.0,9.0,71,0.00,,,0.00,Wunderground v.1.15,2013-01-09 21:25:00,
2013-01-09 16:30:00,48.6,40.0,30.03,West,281,3.0,8.0,72,0.00,,,0.00,Wunderground v.1.15,2013-01-09 21:30:00,
2013-01-09 16:35:00,48.5,39.9,30.04,WNW,284,0.0,12.0,72,0.00,,,0.00,Wunderground v.1.15,2013-01-09 21:35:00,
2013-01-09 16:40:00,48.5,39.9,30.04,West,280,4.0,6.0,72,0.00,,,0.00,Wunderground v.1.15,2013-01-09 21:40:00,
2013-01-09 16:46:00,48.6,40.0,30.05,South,176,2.0,7.0,72,0.00,,,0.00,Wunderground v.1.15,2013-01-09 21:46:00,
2013-01-09 16:51:00,48.6,40.0,30.05,WNW,298,2.0,8.0,72,0.00,,,0.00,Wunderground v.1.15,2013-01-09 21:51:00,
2013-01-09 16:55:00,48.6,40.0,30.06,WSW,246,7.0,11.0,72,0.00,,,0.00,Wunderground v.1.15,2013-01-09 21:55:00,
2013-01-09 17:01:00,48.5,39.9,30.05,NW,307,3.0,4.0,72,0.00,,,0.00,Wunderground v.1.15,2013-01-09 22:01:00,
2013-01-09 17:06:00,48.5,39.9,30.06,NW,311,6.0,8.0,72,0.00,,,0.00,Wunderground v.1.15,2013-01-09 22:06:00,
2013-01-09 17:11:00,48.6,40.0,30.06,West,270,2.0,7.0,72,0.00,,,0.00,Wunderground v.1.15,2013-01-09 22:11:00,
2013-01-09 17:18:00,48.7,40.1,30.07,WNW,295,5.0,5.0,72,0.00,,,0.00,Wunderground v.1.15,2013-01-09 22:18:00,
2013-01-09 17:23:00,48.7,40.1,30.07,WNW,283,11.0,11.0,72,0.00,,,0.00,Wunderground v.1.15,2013-01-09 22:23:00,
2013-01-09 17:28:00,48.8,40.2,30.07,West,277,5.0,8.0,72,0.00,,,0.00,Wunderground v.1.15,2013-01-09 22:28:00,
2013-01-09 17:33:00,48.8,40.2,30.06,South,188,3.0,10.0,72,0.00,,,0.00,Wunderground v.1.15,2013-01-09 22:33:00,
2013-01-09 17:38:00,48.8,40.2,30.06,West,266,5.0,10.0,72,0.00,,,0.00,Wunderground v.1.15,2013-01-09 22:38:00,
2013-01-09 17:43:00,48.8,40.2,30.07,WNW,288,4.0,10.0,72,0.00,,,0.00,Wunderground v.1.15,2013-01-09 22:43:00,
2013-01-09 17:48:00,48.6,40.0,30.07,West,259,2.0,5.0,72,0.00,,,0.00,Wunderground v.1.15,2013-01-09 22:48:00,
2013-01-09 17:53:00,48.3,40.0,30.06,WNW,283,3.0,10.0,73,0.00,,,0.00,Wunderground v.1.15,2013-01-09 22:53:00,
2013-01-09 17:59:00,48.1,39.9,30.06,WSW,243,7.0,7.0,73,0.00,,,0.00,Wunderground v.1.15,2013-01-09 22:59:00,
2013-01-09 18:04:00,47.9,39.7,30.07,WNW,293,3.0,10.0,73,0.00,,,0.00,Wunderground v.1.15,2013-01-09 23:04:00,
2013-01-09 18:09:00,47.8,39.6,30.07,West,264,7.0,10.0,73,0.00,,,0.00,Wunderground v.1.15,2013-01-09 23:09:00,
2013-01-09 18:14:00,47.6,39.7,30.07,West,281,3.0,8.0,74,0.00,,,0.00,Wunderground v.1.15,2013-01-09 23:14:00,
2013-01-09 18:19:00,47.5,39.6,30.07,WNW,287,9.0,13.0,74,0.00,,,0.00,Wunderground v.1.15,2013-01-09 23:19:00,
2013-01-09 18:24:00,47.6,39.7,30.07,WNW,285,4.0,11.0,74,0.00,,,0.00,Wunderground v.1.15,2013-01-09 23:24:00,
2013-01-09 18:29:00,47.5,39.6,30.07,West,279,8.0,11.0,74,0.00,,,0.00,Wunderground v.1.15,2013-01-09 23:29:00,
2013-01-09 18:34:00,47.4,39.5,30.07,West,266,5.0,9.0,74,0.00,,,0.00,Wunderground v.1.15,2013-01-09 23:34:00,
2013-01-09 18:39:00,47.4,39.5,30.08,NW,304,4.0,12.0,74,0.00,,,0.00,Wunderground v.1.15,2013-01-09 23:39:00,
2013-01-09 18:44:00,47.3,39.4,30.08,WNW,291,6.0,9.0,74,0.00,,,0.00,Wunderground v.1.15,2013-01-09 23:44:00,
2013-01-09 18:49:00,47.3,39.4,30.07,WNW,288,8.0,13.0,74,0.00,,,0.00,Wunderground v.1.15,2013-01-09 23:49:00,
2013-01-09 18:54:00,47.2,39.3,30.07,WNW,285,7.0,9.0,74,0.00,,,0.00,Wunderground v.1.15,2013-01-09 23:54:00,
2013-01-09 18:59:00,47.0,39.1,30.08,West,279,3.0,10.0,74,0.00,,,0.00,Wunderground v.1.15,2013-01-09 23:59:00,
2013-01-09 19:04:00,46.9,39.0,30.08,WNW,284,1.0,10.0,74,0.00,,,0.00,Wunderground v.1.15,2013-01-10 00:04:00,
2013-01-09 19:09:00,46.8,38.9,30.09,WSW,256,3.0,10.0,74,0.00,,,0.00,Wunderground v.1.15,2013-01-10 00:09:00,
2013-01-09 19:14:00,46.6,39.1,30.09,WNW,283,3.0,7.0,75,0.00,,,0.00,Wunderground v.1.15,2013-01-10 00:14:00,
2013-01-09 19:19:00,46.5,39.0,30.09,NW,321,7.0,7.0,75,0.00,,,0.00,Wunderground v.1.15,2013-01-10 00:19:00,
2013-01-09 19:24:00,46.2,38.7,30.09,WNW,288,4.0,7.0,75,0.00,,,0.00,Wunderground v.1.15,2013-01-10 00:24:00,
2013-01-09 19:29:00,46.1,38.6,30.09,NW,324,3.0,8.0,75,0.00,,,0.00,Wunderground v.1.15,2013-01-10 00:29:00,
2013-01-09 19:33:00,45.9,38.8,30.10,West,264,3.0,9.0,76,0.00,,,0.00,Wunderground v.1.15,2013-01-10 00:33:00,
2013-01-09 19:38:00,45.7,38.6,30.10,WSW,255,6.0,9.0,76,0.00,,,0.00,Wunderground v.1.15,2013-01-10 00:38:00,
2013-01-09 19:43:00,45.5,38.4,30.10,SSW,194,1.0,5.0,76,0.00,,,0.00,Wunderground v.1.15,2013-01-10 00:43:00,
2013-01-09 19:48:00,45.3,38.5,30.09,WNW,300,6.0,9.0,77,0.00,,,0.00,Wunderground v.1.15,2013-01-10 00:48:00,
2013-01-09 19:53:00,45.3,38.5,30.10,WNW,284,6.0,10.0,77,0.00,,,0.00,Wunderground v.1.15,2013-01-10 00:53:00,
2013-01-09 19:58:00,45.3,38.5,30.10,WNW,284,3.0,10.0,77,0.00,,,0.00,Wunderground v.1.15,2013-01-10 00:58:00,
2013-01-09 20:03:00,45.2,38.4,30.10,WNW,297,4.0,8.0,77,0.00,,,0.00,Wunderground v.1.15,2013-01-10 01:03:00,
2013-01-09 20:08:00,45.0,38.6,30.10,WNW,300,4.0,10.0,78,0.00,,,0.00,Wunderground v.1.15,2013-01-10 01:08:00,
2013-01-09 20:13:00,44.9,38.5,30.09,WNW,298,3.0,7.0,78,0.00,,,0.00,Wunderground v.1.15,2013-01-10 01:13:00,
2013-01-09 20:18:00,44.9,38.5,30.09,WNW,300,2.0,9.0,78,0.00,,,0.00,Wunderground v.1.15,2013-01-10 01:18:00,
2013-01-09 20:23:00,44.7,38.3,30.09,WNW,287,4.0,7.0,78,0.00,,,0.00,Wunderground v.1.15,2013-01-10 01:23:00,
2013-01-09 20:29:00,44.5,38.4,30.09,WNW,283,4.0,8.0,79,0.00,,,0.00,Wunderground v.1.15,2013-01-10 01:29:00,
2013-01-09 20:34:00,44.4,38.3,30.09,WNW,293,4.0,9.0,79,0.00,,,0.00,Wunderground v.1.15,2013-01-10 01:34:00,
2013-01-09 20:39:00,44.3,38.2,30.09,West,277,4.0,9.0,79,0.00,,,0.00,Wunderground v.1.15,2013-01-10 01:39:00,
2013-01-09 20:44:00,44.3,38.5,30.10,West,281,5.0,8.0,80,0.00,,,0.00,Wunderground v.1.15,2013-01-10 01:44:00,
2013-01-09 20:49:00,44.3,38.2,30.10,West,271,4.0,9.0,79,0.00,,,0.00,Wunderground v.1.15,2013-01-10 01:49:00,
2013-01-09 20:54:00,44.4,38.3,30.09,West,270,4.0,8.0,79,0.00,,,0.00,Wunderground v.1.15,2013-01-10 01:54:00,
2013-01-09 20:59:00,44.3,38.5,30.10,WNW,287,2.0,8.0,80,0.00,,,0.00,Wunderground v.1.15,2013-01-10 01:59:00,
2013-01-09 21:04:00,44.3,38.5,30.09,NW,316,3.0,8.0,80,0.00,,,0.00,Wunderground v.1.15,2013-01-10 02:04:00,
2013-01-09 21:09:00,44.4,38.6,30.09,West,271,5.0,8.0,80,0.00,,,0.00,Wunderground v.1.15,2013-01-10 02:09:00,
2013-01-09 21:14:00,44.4,38.6,30.09,West,269,5.0,7.0,80,0.00,,,0.00,Wunderground v.1.15,2013-01-10 02:14:00,
2013-01-09 21:19:00,44.5,38.7,30.09,WNW,291,4.0,10.0,80,0.00,,,0.00,Wunderground v.1.15,2013-01-10 02:19:00,
2013-01-09 21:24:00,44.5,38.4,30.09,NW,307,3.0,9.0,79,0.00,,,0.00,Wunderground v.1.15,2013-01-10 02:24:00,
2013-01-09 21:29:00,44.4,38.6,30.09,WNW,290,4.0,9.0,80,0.00,,,0.00,Wunderground v.1.15,2013-01-10 02:29:00,
2013-01-09 21:34:00,44.3,38.2,30.09,WNW,300,3.0,6.0,79,0.00,,,0.00,Wunderground v.1.15,2013-01-10 02:34:00,
2013-01-09 21:39:00,44.4,38.3,30.10,WNW,291,5.0,11.0,79,0.00,,,0.00,Wunderground v.1.15,2013-01-10 02:39:00,
2013-01-09 21:44:00,44.4,38.3,30.10,WNW,291,5.0,9.0,79,0.00,,,0.00,Wunderground v.1.15,2013-01-10 02:44:00,
2013-01-09 21:49:00,44.4,38.3,30.10,West,273,5.0,9.0,79,0.00,,,0.00,Wunderground v.1.15,2013-01-10 02:49:00,
2013-01-09 21:54:00,44.4,38.3,30.10,WSW,250,8.0,10.0,79,0.00,,,0.00,Wunderground v.1.15,2013-01-10 02:54:00,
2013-01-09 21:59:00,44.7,38.3,30.10,WNW,283,4.0,13.0,78,0.00,,,0.00,Wunderground v.1.15,2013-01-10 02:59:00,
2013-01-09 22:04:00,45.0,38.2,30.10,NW,326,6.0,11.0,77,0.00,,,0.00,Wunderground v.1.15,2013-01-10 03:04:00,
2013-01-09 22:09:00,45.0,37.9,30.10,NW,321,4.0,12.0,76,0.00,,,0.00,Wunderground v.1.15,2013-01-10 03:09:00,
2013-01-09 22:14:00,45.0,37.9,30.10,WNW,295,4.0,12.0,76,0.00,,,0.00,Wunderground v.1.15,2013-01-10 03:14:00,
2013-01-09 22:19:00,45.2,37.4,30.10,WNW,288,3.0,12.0,74,0.00,,,0.00,Wunderground v.1.15,2013-01-10 03:19:00,
2013-01-09 22:24:00,45.5,37.3,30.10,WNW,288,5.0,10.0,73,0.00,,,0.00,Wunderground v.1.15,2013-01-10 03:24:00,
2013-01-09 22:29:00,45.6,37.1,30.10,WNW,295,10.0,15.0,72,0.00,,,0.00,Wunderground v.1.15,2013-01-10 03:29:00,
2013-01-09 22:34:00,45.7,36.8,30.10,West,269,5.0,11.0,71,0.00,,,0.00,Wunderground v.1.15,2013-01-10 03:34:00,
2013-01-09 22:39:00,45.8,36.9,30.10,West,280,6.0,11.0,71,0.00,,,0.00,Wunderground v.1.15,2013-01-10 03:39:00,
2013-01-09 22:44:00,45.8,36.6,30.11,West,278,5.0,13.0,70,0.00,,,0.00,Wunderground v.1.15,2013-01-10 03:44:00,
2013-01-09 22:49:00,45.7,36.5,30.11,NW,304,3.0,13.0,70,0.00,,,0.00,Wunderground v.1.15,2013-01-10 03:49:00,
2013-01-09 22:54:00,45.5,36.6,30.11,West,281,5.0,8.0,71,0.00,,,0.00,Wunderground v.1.15,2013-01-10 03:54:00,
2013-01-09 22:59:00,45.4,36.5,30.11,WNW,290,6.0,8.0,71,0.00,,,0.00,Wunderground v.1.15,2013-01-10 03:59:00,
2013-01-09 23:04:00,45.3,36.4,30.11,NW,319,7.0,10.0,71,0.00,,,0.00,Wunderground v.1.15,2013-01-10 04:04:00,
2013-01-09 23:09:00,45.2,36.4,30.12,WNW,287,3.0,11.0,71,0.00,,,0.00,Wunderground v.1.15,2013-01-10 04:09:00,
2013-01-09 23:14:00,45.1,36.3,30.12,WNW,293,5.0,9.0,71,0.00,,,0.00,Wunderground v.1.15,2013-01-10 04:14:00,
2013-01-09 23:19:00,44.9,36.1,30.12,WNW,297,2.0,11.0,71,0.00,,,0.00,Wunderground v.1.15,2013-01-10 04:19:00,
2013-01-09 23:24:00,44.8,36.0,30.12,NNW,342,3.0,11.0,71,0.00,,,0.00,Wunderground v.1.15,2013-01-10 04:24:00,
2013-01-09 23:29:00,44.6,35.8,30.12,WNW,295,2.0,11.0,71,0.00,,,0.00,Wunderground v.1.15,2013-01-10 04:29:00,
2013-01-09 23:34:00,44.5,36.0,30.12,WNW,293,3.0,8.0,72,0.00,,,0.00,Wunderground v.1.15,2013-01-10 04:34:00,
2013-01-09 23:39:00,44.4,35.9,30.13,West,276,2.0,10.0,72,0.00,,,0.00,Wunderground v.1.15,2013-01-10 04:39:00,
2013-01-09 23:44:00,44.2,35.7,30.13,WNW,284,2.0,9.0,72,0.00,,,0.00,Wunderground v.1.15,2013-01-10 04:44:00,
2013-01-09 23:50:00,44.3,35.5,30.14,NNW,338,2.0,9.0,71,0.00,,,0.00,Wunderground v.1.15,2013-01-10 04:50:00,
2013-01-09 23:55:00,44.2,35.4,30.14,West,281,5.0,8.0,71,0.00,,,0.00,Wunderground v.1.15,2013-01-10 04:55:00,